Total_Precipitation_Accumulation
0.68 0.65 0.61 0.56 0.53 0.51 0.48 0.43 0.38 0.33 0.31 0.31 0.30 0.27 0.26 0.25 0.25 0.23 0.19 0.19 0.18 0.22 0.33 0.53 0.78 1.01 1.19 1.36 1.46 1.36 1.30 1.16 0.89 0.73 0.71 0.79 0.84 0.90 0.90 0.95 0.95 0.84 0.81
0.65 0.66 0.64 0.62 0.56 0.50 0.48 0.45 0.40 0.35 0.30 0.28 0.26 0.25 0.25 0.24 0.25 0.26 0.24 0.25 0.23 0.23 0.28 0.40 0.58 0.88 1.13 1.29 1.48 1.60 1.46 1.42 1.27 0.98 0.81 0.78 0.81 0.86 0.89 0.95 1.00 0.98 0.89
0.61 0.67 0.69 0.66 0.61 0.55 0.51 0.48 0.46 0.44 0.38 0.32 0.27 0.24 0.22 0.21 0.21 0.22 0.24 0.27 0.28 0.27 0.28 0.34 0.43 0.65 0.95 1.20 1.38 1.63 1.68 1.55 1.55 1.42 1.15 0.94 0.87 0.86 0.90 0.95 1.00 1.06 1.01
0.66 0.69 0.72 0.70 0.65 0.61 0.58 0.53 0.49 0.47 0.43 0.37 0.31 0.27 0.24 0.21 0.19 0.17 0.17 0.21 0.28 0.31 0.30 0.31 0.36 0.48 0.75 1.05 1.33 1.56 1.95 1.84 1.72 1.76 1.69 1.36 1.07 0.98 0.98 1.02 1.06 1.11 1.13
0.69 0.72 0.75 0.75 0.74 0.72 0.66 0.62 0.56 0.49 0.44 0.40 0.36 0.32 0.27 0.23 0.21 0.20 0.18 0.16 0.19 0.27 0.32 0.33 0.34 0.37 0.51 0.81 1.13 1.42 1.89 2.22 2.03 1.94 2.01 1.92 1.56 1.26 1.15 1.16 1.20 1.22 1.27
0.71 0.69 0.72 0.74 0.77 0.76 0.70 0.65 0.59 0.51 0.45 0.42 0.40 0.37 0.30 0.26 0.23 0.21 0.19 0.18 0.17 0.19 0.28 0.34 0.36 0.32 0.35 0.49 0.78 1.20 1.60 2.06 2.30 2.19 2.14 2.19 2.07 1.77 1.50 1.37 1.35 1.42 1.45
0.79 0.76 0.73 0.72 0.75 0.76 0.68 0.61 0.59 0.57 0.53 0.51 0.53 0.49 0.42 0.34 0.29 0.25 0.22 0.20 0.17 0.17 0.21 0.31 0.39 0.36 0.32 0.35 0.45 0.72 1.18 1.74 2.21 2.43 2.43 2.36 2.34 2.16 1.89 1.66 1.52 1.56 1.63
0.85 0.82 0.74 0.74 0.74 0.73 0.71 0.63 0.59 0.59 0.58 0.57 0.59 0.61 0.54 0.48 0.40 0.31 0.28 0.25 0.21 0.20 0.22 0.26 0.36 0.41 0.40 0.35 0.30 0.41 0.68 1.21 1.83 2.33 2.58 2.64 2.59 2.52 2.26 1.97 1.75 1.70 1.79
0.84 0.88 0.82 0.75 0.75 0.76 0.73 0.66 0.59 0.58 0.58 0.54 0.53 0.71 0.74 0.53 0.35 0.28 0.26 0.26 0.25 0.24 0.24 0.26 0.32 0.39 0.44 0.43 0.37 0.37 0.45 0.75 1.31 1.96 2.45 2.72 2.81 2.89 2.75 2.34 2.05 1.89 1.90
0.82 0.82 0.85 0.83 0.78 0.75 0.72 0.68 0.63 0.59 0.61 0.61 0.56 0.56 0.61 0.61 0.59 0.41 0.26 0.24 0.27 0.29 0.28 0.27 0.30 0.35 0.41 0.47 0.48 0.48 0.49 0.57 0.91 1.42 2.04 2.61 2.95 3.19 3.32 2.92 2.45 2.20 2.13
0.82 0.82 0.81 0.84 0.82 0.77 0.72 0.72 0.72 0.70 0.69 0.67 0.62 0.55 0.52 0.48 0.50 0.59 0.40 0.28 0.30 0.30 0.32 0.34 0.34 0.36 0.39 0.45 0.51 0.53 0.59 0.60 0.79 1.13 1.57 2.23 2.82 3.36 3.81 3.63 2.93 2.44 2.24
0.85 0.81 0.80 0.79 0.80 0.78 0.70 0.68 0.70 0.73 0.74 0.70 0.64 0.59 0.60 0.59 0.51 0.56 0.51 0.36 0.34 0.32 0.34 0.38 0.42 0.43 0.42 0.45 0.49 0.59 0.63 0.67 0.75 0.95 1.20 1.66 2.28 2.87 3.64 3.96 3.43 2.75 2.32
0.92 0.84 0.79 0.77 0.75 0.75 0.75 0.72 0.73 0.71 0.71 0.75 0.73 0.65 0.59 0.55 0.53 0.59 0.64 0.53 0.47 0.40 0.39 0.41 0.42 0.48 0.51 0.50 0.50 0.56 0.59 0.65 0.75 0.87 0.99 1.17 1.57 2.23 3.03 3.86 4.06 3.35 2.73
0.85 0.86 0.86 0.80 0.73 0.70 0.74 0.78 0.78 0.75 0.74 0.75 0.72 0.70 0.65 0.55 0.57 0.64 0.73 0.81 0.77 0.55 0.46 0.42 0.40 0.43 0.50 0.54 0.56 0.60 0.56 0.64 0.72 0.81 0.89 0.99 1.11 1.49 2.21 3.16 4.08 4.13 3.43
0.85 0.92 0.92 0.91 0.85 0.79 0.75 0.77 0.79 0.78 0.81 0.80 0.78 0.74 0.75 0.67 0.63 0.64 0.68 0.83 1.06 0.91 0.55 0.42 0.41 0.44 0.49 0.55 0.60 0.60 0.58 0.62 0.69 0.78 0.88 0.95 0.98 1.12 1.46 2.12 3.05 4.01 4.17
0.83 0.95 0.99 0.94 0.94 0.91 0.86 0.81 0.79 0.77 0.83 0.84 0.85 0.84 0.82 0.80 0.78 0.73 0.73 0.77 0.90 1.00 0.74 0.39 0.37 0.41 0.54 0.63 0.71 0.66 0.67 0.74 0.73 0.78 0.84 0.90 0.93 1.01 1.19 1.53 2.11 3.00 3.84
0.78 0.87 0.98 1.00 0.99 0.98 0.95 0.93 0.89 0.88 0.88 0.87 0.91 0.96 0.93 0.90 0.95 0.90 0.84 0.81 0.82 0.90 0.88 0.46 0.36 0.40 0.59 0.79 0.82 0.78 0.79 0.77 0.70 0.72 0.78 0.84 0.90 0.96 1.10 1.28 1.60 2.16 3.00
0.80 0.83 0.92 1.05 1.08 1.06 1.02 1.01 0.99 1.02 1.09 1.05 0.99 0.99 1.00 1.00 1.03 1.01 1.00 0.92 0.81 0.76 0.82 0.67 0.47 0.50 0.63 0.79 0.85 0.84 0.82 0.80 0.74 0.74 0.76 0.84 0.92 0.98 1.10 1.20 1.40 1.71 2.32
0.85 0.85 0.93 1.07 1.15 1.16 1.13 1.05 1.04 1.08 1.18 1.25 1.22 1.19 1.12 1.09 1.11 1.06 1.07 1.03 0.92 0.81 0.78 0.78 0.63 0.56 0.64 0.77 0.89 0.93 0.87 0.87 0.87 0.89 0.86 0.88 0.93 0.99 1.07 1.13 1.27 1.50 1.77
0.87 0.88 0.89 0.97 1.09 1.20 1.28 1.28 1.29 1.23 1.24 1.28 1.30 1.32 1.29 1.28 1.23 1.18 1.17 1.13 1.09 1.06 0.99 0.98 0.88 0.75 0.72 0.78 0.95 1.09 1.07 0.96 0.95 0.96 0.97 0.94 0.99 1.04 1.06 1.01 1.00 1.17 1.41
0.88 0.88 0.89 0.88 0.96 1.22 1.57 1.56 1.47 1.41 1.29 1.20 1.14 1.15 1.22 1.36 1.41 1.47 1.49 1.39 1.35 1.42 1.37 1.30 1.14 1.00 0.90 0.94 1.04 1.10 1.25 1.19 1.10 1.06 1.06 0.96 0.97 0.96 0.94 0.92 0.94 1.05 1.24
0.98 0.94 0.91 0.88 0.90 1.11 1.54 1.59 1.32 1.13 1.01 0.99 0.98 0.92 0.94 1.13 1.23 1.35 1.47 1.48 1.53 1.67 1.73 1.64 1.41 1.21 0.98 0.92 1.00 1.19 1.39 1.53 1.46 1.16 1.16 1.15 1.08 1.08 0.96 0.87 0.90 0.94 1.09
1.01 0.99 0.92 0.86 0.82 0.89 1.28 1.39 1.19 0.93 0.80 0.77 0.79 0.79 0.80 0.88 1.01 1.01 1.16 1.25 1.32 1.48 1.67 1.75 1.69 1.32 1.05 0.93 1.12 1.32 1.41 1.54 1.46 1.28 1.35 1.52 1.33 1.19 1.03 0.96 0.96 0.87 0.94
1.07 1.02 0.95 0.87 0.84 0.79 1.12 1.31 1.18 0.86 0.73 0.67 0.66 0.65 0.65 0.70 0.84 0.99 1.10 1.12 1.08 1.18 1.44 1.63 1.76 1.57 1.33 1.22 1.37 1.66 1.81 1.87 1.73 1.55 1.50 1.76 1.56 1.35 1.22 1.11 0.99 0.86 0.87
1.01 1.00 0.95 0.86 0.84 0.82 1.01 1.33 1.31 0.94 0.77 0.66 0.64 0.64 0.60 0.58 0.81 1.02 1.05 1.02 0.94 0.97 1.13 1.40 1.60 1.68 1.70 1.76 1.85 2.14 2.33 2.32 2.19 1.90 1.67 1.77 1.77 1.64 1.49 1.36 1.15 0.94 0.83
0.95 0.96 0.96 0.89 0.84 0.80 0.94 1.32 1.50 1.07 0.86 0.75 0.68 0.66 0.73 0.75 0.90 0.97 0.93 0.98 1.03 0.93 0.90 0.98 1.08 1.20 1.28 1.40 1.67 1.91 2.10 2.21 2.22 2.22 1.85 1.72 1.86 1.91 2.05 1.69 1.28 0.94 0.81